Regional Weather Roundup
Issued by NWS Little Rock, AR

Home | Current Version | Previous Version | Text Only | Print | Product List | Glossary Off
Versions: 1 2 3 4 5 6 7 8 9 10 11 12 13 14 15 16 17 18 19 20 21 22 23 24 25 26 27 28 29 30 31 32 33 34 35 36 37 38 39 40 41 42 43 44 45 46 47 48 49 50

000
ASUS44 KLZK 201605
RWRLZK

WEATHER ROUNDUP FOR ARKANSAS
NATIONAL WEATHER SERVICE LITTLE ROCK AR
1000 AM CST THU NOV 20 2014

NOTE: "FAIR" INDICATES FEW OR NO CLOUDS BELOW 12,000 FEET WITH NO
SIGNIFICANT WEATHER AND/OR OBSTRUCTIONS TO VISIBILITY.

ARZ001-003-010-029-201700-
NORTHWEST ARKANSAS

CITY           SKY/WX    TMP DP  RH WIND       PRES   REMARKS
FAYETTEVILLE   SUNNY     41  30  65 SW3       30.19F
FORT SMITH     SUNNY     46  29  51 E15       30.21F
HARRISON       SUNNY     38  22  52 SE7       30.23R
BENTONVILLE    SUNNY     43  19  39 E9        30.20S
ROGERS         SUNNY     43  19  38 E9        30.20R
SILOAM SPGS      N/A     45  25  45 E8        30.19S
HIGHFILL       SUNNY     44  25  47 E6        30.18F
SPRINGDALE     SUNNY     43  27  52 E9        30.21S
$$

ARZ004-005-016-201700-
NORTH CENTRAL ARKANSAS

CITY           SKY/WX    TMP DP  RH WIND       PRES   REMARKS
BATESVILLE     SUNNY     41  25  52 E6        30.29S
FLIPPIN        SUNNY     37  23  56 SE3       30.27R
MTN HOME       SUNNY     38  24  57 S5        30.25S
$$

ARZ040-041-201700-
WEST CENTRAL ARKANSAS

CITY           SKY/WX    TMP DP  RH WIND       PRES   REMARKS
MENA           MOSUNNY   45  34  65 NE3       30.22S
MOUNT IDA      MOSUNNY   45  29  53 VRB7      30.21F
$$

ARZ009-017-025-026-028-201700-
NORTHEAST ARKANSAS

CITY           SKY/WX    TMP DP  RH WIND       PRES   REMARKS
CORNING        FAIR      39  23  52 S3        30.31R
JONESBORO      SUNNY     40  21  46 NE5       30.31R
NEWPORT        SUNNY     40  25  55 E6        30.32S
WALNUT RIDGE   SUNNY     37  21  52 S5        30.31S
BLYTHEVILLE    SUNNY     43  24  47 E3        30.31R
$$

ARZ022-023-033-042-044-201700-
CENTRAL ARKANSAS

CITY           SKY/WX    TMP DP  RH WIND       PRES   REMARKS
LITTLE ROCK    PTSUNNY   45  26  47 E7        30.30R
N LITTLE ROCK  PTSUNNY   43  30  59 E6        30.30R
JACKSONVILLE   MOSUNNY   44  26  49 NE7       30.28F
SEARCY         SUNNY     43  26  51 E7        30.32S
HOT SPRINGS    SUNNY     44  27  51 E10       30.26S
RUSSELLVILLE   PTSUNNY   41  27  57 VRB7      30.27S
CLINTON        FAIR      41  28  60 CALM      30.31R
$$

ARZ036-201700-
EAST ARKANSAS

CITY           SKY/WX    TMP DP  RH WIND       PRES   REMARKS
WEST MEMPHIS   SUNNY     43  26  51 VRB3      30.30R
$$

ARZ050-053-066-070-073-201700-
SOUTHWEST ARKANSAS

CITY           SKY/WX    TMP DP  RH WIND       PRES   REMARKS
ARKADELPHIA    PTSUNNY   46  33  60 E7        30.27F
CAMDEN         CLOUDY    46  41  81 N7        30.26S FOG
TEXARKANA      FOG       46  46 100 E6        30.22R VSB 1/4
EL DORADO      CLOUDY    48  46  93 E6        30.25R
DE QUEEN       CLOUDY    46  38  73 E10       30.21S
$$

ARZ056-057-069-201700-
SOUTHEAST ARKANSAS

CITY           SKY/WX    TMP DP  RH WIND       PRES   REMARKS
PINE BLUFF     MOSUNNY   45  29  53 E9        30.29S
STUTTGART      SUNNY     45  28  53 E9        30.30S
MONTICELLO     CLOUDY    46  39  76 E7        30.27S

$$





USA.gov is the U.S. government's official web portal to all federal, state and local government web resources and services.